Marshall, TX

3:52 PM CDT on October 15, 2019 (GMT -0500)
Harrison County

Weather History for KASL - August, 2019

Change the Weather History Date:

Monday, August 19, 2019

  Actual Average (KGGG) Record (KGGG)
Temperature  
Mean Temperature 86 °F -  
Max Temperature 96 °F 91 °F 107 °F (2011)
Min Temperature 75 °F 70 °F 56 °F (1992)
Cooling Degree Days 20    
Growing Degree Days 36 (Base 50)    
Moisture  
Dew Point 73 °F    
Average Humidity 70    
Maximum Humidity 92    
Minimum Humidity 41    
Precipitation  
Precipitation 0.00 in - - ()
Sea Level Pressure  
Sea Level Pressure 30.00 in    
Wind  
Wind Speed 3 mph (SSW)    
Max Wind Speed 9 mph    
Max Gust Speed -    
Visibility 10 miles    
Events      
Averages and records for this station are not official NWS values.
T = Trace of Precipitation, MM = Missing Value Source: NWS Daily Summary

Daily Weather History Graph

Daily Weather History Graph

Search for Another Location

Airport or City:

Astronomy

Aug. 19, 2019 Rise Set
Actual Time 6:43 AM CDT 7:57 PM CDT
Civil Twilight 6:17 AM CDT 8:23 PM CDT
Nautical Twilight 5:47 AM CDT 8:53 PM CDT
Astronomical Twilight 5:15 AM CDT 9:25 PM CDT
Moon 10:31 PM CDT (8/19) 10:14 AM CDT (8/19)
Length of Visible Light 14h 05m
Length of Day
13h 14m
Waning Gibbous, 85% of the Moon is Illuminated
Aug 19
Waning Gibbous
Aug 23
Last Quarter
Aug 30
New
Sep 5
First Quarter
Sep 13
Full

Hourly Weather History & Observations

Time (CDT) Temp. Heat Index Dew Point Humidity Pressure Visibility Wind Dir Wind Speed Gust Speed Precip Events Conditions
12:15 AM 78.8 °F - 73.4 °F 83% 29.97 in 10.0 mi North - - N/A   Clear
12:35 AM 78.8 °F - 73.6 °F 84% 29.98 in 10.0 mi North - - N/A   Clear
12:55 AM 78.1 °F - 73.4 °F 85% 29.98 in 10.0 mi North - - N/A   Clear
1:15 AM 77.4 °F - 73.0 °F 86% 29.98 in 10.0 mi North - - N/A   Clear
1:35 AM 77.4 °F - 73.4 °F 88% 29.97 in 10.0 mi North - - N/A   Clear
1:55 AM 77.4 °F - 73.6 °F 88% 29.97 in 10.0 mi North - - N/A   Clear
2:15 AM 76.3 °F - 72.7 °F 89% 29.97 in 10.0 mi North - - N/A   Clear
2:35 AM 76.3 °F - 72.9 °F 89% 29.97 in 10.0 mi North - - N/A   Clear
2:55 AM 75.9 °F - 72.9 °F 90% 29.97 in 10.0 mi North - - N/A   Clear
3:15 AM 75.6 °F - 72.7 °F 91% 29.97 in 10.0 mi North - - N/A   Clear
3:35 AM 75.2 °F - 72.3 °F 91% 29.97 in 10.0 mi North - - N/A   Clear
3:55 AM 75.4 °F - 72.5 °F 91% 29.97 in 10.0 mi North - - N/A   Clear
4:15 AM 75.2 °F - 72.5 °F 91% 29.98 in 10.0 mi Calm Calm - N/A   Clear
4:35 AM 75.2 °F - 72.5 °F 91% 29.98 in 10.0 mi North - - N/A   Clear
4:55 AM 75.2 °F - 72.5 °F 91% 29.98 in 10.0 mi North - - N/A   Clear
5:15 AM 75.2 °F - 72.5 °F 91% 29.99 in 10.0 mi North - - N/A   Clear
5:35 AM 75.2 °F - 72.7 °F 92% 30.00 in 10.0 mi North - - N/A   Clear
5:55 AM 75.2 °F - 72.7 °F 92% 30.01 in 7.0 mi North - - N/A   Clear
6:15 AM 75.2 °F - 72.9 °F 92% 30.01 in 7.0 mi North - - N/A   Clear
6:35 AM 75.2 °F - 72.9 °F 92% 30.02 in 7.0 mi North - - N/A   Clear
6:55 AM 75.2 °F - 72.9 °F 92% 30.02 in 7.0 mi North - - N/A   Clear
7:15 AM 75.2 °F - 72.9 °F 92% 30.03 in 7.0 mi North - - N/A   Scattered Clouds
7:35 AM 75.2 °F - 72.9 °F 92% 30.03 in 7.0 mi North - - N/A   Scattered Clouds
7:55 AM 76.3 °F - 73.9 °F 92% 30.03 in 10.0 mi North - - N/A   Scattered Clouds
8:15 AM 77.4 °F - 74.3 °F 90% 30.03 in 10.0 mi North - - N/A   Scattered Clouds
8:35 AM 78.8 °F - 74.5 °F 87% 30.04 in 10.0 mi SW 4.6 mph - N/A   Clear
8:55 AM 82.4 °F 90.9 °F 77.0 °F 84% 30.04 in 10.0 mi North - - N/A   Clear
9:15 AM 85.1 °F 96.2 °F 77.5 °F 78% 30.04 in 10.0 mi SW 5.8 mph - N/A   Scattered Clouds
9:35 AM 85.1 °F 94.9 °F 76.3 °F 75% 30.04 in 10.0 mi North - - N/A   Scattered Clouds
9:55 AM 87.1 °F 98.3 °F 76.5 °F 71% 30.05 in 10.0 mi SW 8.1 mph - N/A   Mostly Cloudy
10:15 AM 87.4 °F 97.7 °F 75.9 °F 68% 30.05 in 10.0 mi SW 9.2 mph - N/A   Overcast
10:35 AM 88.7 °F 100.4 °F 76.3 °F 67% 30.05 in 10.0 mi North - - N/A   Mostly Cloudy
10:55 AM 90.0 °F 101.3 °F 75.7 °F 63% 30.05 in 10.0 mi North - - N/A   Scattered Clouds
11:15 AM 90.0 °F 100.7 °F 75.6 °F 62% 30.05 in 10.0 mi North - - N/A   Scattered Clouds
11:35 AM 90.0 °F 99.0 °F 73.9 °F 59% 30.05 in 10.0 mi North - - N/A   Clear
11:55 AM 90.0 °F 97.9 °F 72.7 °F 57% 30.04 in 10.0 mi North - - N/A   Clear
12:15 PM 92.5 °F 102.6 °F 73.9 °F 55% 30.04 in 10.0 mi North - - N/A   Clear
12:35 PM 92.5 °F 100.7 °F 72.7 °F 52% 30.04 in 10.0 mi North - - N/A   Scattered Clouds
12:55 PM 92.5 °F 99.6 °F 71.6 °F 50% 30.03 in 10.0 mi North - - N/A   Clear
1:15 PM 95.0 °F 103.8 °F 72.5 °F 48% 30.02 in 10.0 mi North - - N/A   Scattered Clouds
1:35 PM 95.0 °F 102.5 °F 71.4 °F 46% 30.02 in 10.0 mi North - - N/A   Scattered Clouds
1:55 PM 95.0 °F 103.2 °F 71.6 °F 47% 30.01 in 10.0 mi North - - N/A   Clear
2:15 PM 92.5 °F 99.0 °F 70.7 °F 49% 30.01 in 10.0 mi North - - N/A   Scattered Clouds
2:35 PM 95.0 °F 100.7 °F 69.1 °F 43% 30.00 in 10.0 mi North - - N/A   Scattered Clouds
2:55 PM 95.4 °F 100.2 °F 68.5 °F 41% 29.98 in 10.0 mi North - - N/A   Scattered Clouds
3:15 PM 96.3 °F 102.0 °F 69.1 °F 41% 29.98 in 10.0 mi North - - N/A   Clear
3:35 PM 96.1 °F 102.3 °F 69.3 °F 42% 29.97 in 10.0 mi North - - N/A   Scattered Clouds
3:55 PM 96.8 °F 103.1 °F 69.6 °F 41% 29.97 in 10.0 mi North - - N/A   Mostly Cloudy
4:15 PM 95.0 °F 101.3 °F 70.0 °F 44% 29.97 in 10.0 mi North - - N/A   Mostly Cloudy
4:35 PM 96.3 °F 102.6 °F 69.4 °F 42% 29.96 in 10.0 mi North - - N/A   Clear
4:55 PM 95.7 °F 102.1 °F 70.0 °F 43% 29.96 in 10.0 mi North - - N/A   Scattered Clouds
5:15 PM 95.0 °F 100.7 °F 69.3 °F 43% 29.96 in 10.0 mi SE 4.6 mph - N/A   Mostly Cloudy
5:35 PM 93.4 °F 100.3 °F 70.9 °F 48% 29.96 in 10.0 mi North - - N/A   Mostly Cloudy
5:55 PM 95.0 °F 102.5 °F 71.1 °F 46% 29.96 in 10.0 mi North - - N/A   Scattered Clouds
6:15 PM 95.0 °F 101.9 °F 70.3 °F 45% 29.96 in 10.0 mi North - - N/A   Scattered Clouds
6:35 PM 95.0 °F 103.2 °F 71.6 °F 47% 29.96 in 10.0 mi North - - N/A   Scattered Clouds
6:55 PM 92.5 °F 98.4 °F 70.3 °F 48% 29.97 in 10.0 mi North - - N/A   Clear
7:15 PM 92.5 °F 99.6 °F 71.6 °F 50% 29.97 in 10.0 mi North - - N/A   Clear
7:35 PM 90.7 °F 96.4 °F 70.2 °F 51% 29.97 in 10.0 mi North - - N/A   Clear
7:55 PM 90.0 °F 96.4 °F 71.1 °F 54% 29.97 in 10.0 mi Calm Calm - N/A   Clear
8:15 PM 87.1 °F 93.6 °F 72.0 °F 61% 29.98 in 10.0 mi North - - N/A   Clear
8:35 PM 85.1 °F 91.5 °F 72.5 °F 66% 29.98 in 10.0 mi Calm Calm - N/A   Clear
8:55 PM 85.1 °F 92.9 °F 74.3 °F 70% 29.99 in 10.0 mi North - - N/A   Clear
9:15 PM 82.4 °F 88.4 °F 73.6 °F 75% 30.00 in 10.0 mi North - - N/A   Clear
9:35 PM 82.4 °F 88.7 °F 74.3 °F 76% 30.01 in 10.0 mi North - - N/A   Clear
9:55 PM 82.4 °F 88.4 °F 73.6 °F 75% 30.01 in 10.0 mi Calm Calm - N/A   Clear
10:15 PM 81.5 °F 86.7 °F 73.4 °F 76% 30.02 in 10.0 mi North - - N/A   Clear
10:35 PM 82.4 °F 88.2 °F 73.2 °F 74% 30.03 in 10.0 mi North - - N/A   Clear
10:55 PM 81.5 °F 87.2 °F 74.1 °F 78% 30.03 in 10.0 mi North - - N/A   Clear
11:15 PM 82.0 °F 88.6 °F 75.0 °F 79% 30.03 in 10.0 mi North - - N/A   Clear
11:35 PM 79.9 °F - 73.4 °F 80% 30.03 in 10.0 mi North - - N/A   Clear
11:55 PM 79.7 °F - 73.6 °F 81% 30.03 in 10.0 mi North - - N/A   Clear